Regional Weather Roundup
Issued by NWS Cleveland, OH

Home | Current Version | Previous Version | Text Only | Print | Product List | Glossary Off
Versions: 1 2 3 4 5 6 7 8 9 10 11 12 13 14 15 16 17 18 19 20 21 22 23 24 25 26 27 28 29 30 31 32 33 34 35 36 37 38 39 40 41 42 43 44 45 46 47 48 49 50

000
ASUS41 KCLE 301300
RWRCLE
OHIO REGIONAL WEATHER ROUNDUP
NATIONAL WEATHER SERVICE WILMINGTON, OH
900 AM EDT MON MAR 30 2015

NOTE: "FAIR" INDICATES FEW OR NO CLOUDS BELOW 12,000 FEET WITH NO
SIGNIFICANT WEATHER AND/OR OBSTRUCTIONS TO VISIBILITY.

OHZ001>008-015>018-024>027-034-035-043-044-301400-
   NORTHWEST OHIO

CITY           SKY/WX    TMP DP  RH WIND       PRES   REMARKS
DEFIANCE       SUNNY     41  29  62 VRB5      29.98R
FINDLAY        SUNNY     40  30  67 W13       29.97R
TOLEDO EXPRESS SUNNY     39  29  67 W12       29.95R
TOLEDO EXEC    SUNNY     41  29  62 W15       29.95R
LIMA           SUNNY     41  30  65 W13       29.99R
$$

OHZ009>014-019>023-028>033-038-089-301400-
   NORTHEAST OHIO

CITY           SKY/WX    TMP DP  RH WIND       PRES   REMARKS
CLE-HOPKINS    CLOUDY    40  31  70 W14       29.94R
CLE-LAKEFRONT  CLOUDY    38  31  76 W18       29.91R
CUY CO. ARPT   CLOUDY    43  34  70 W12G23    29.90R
LORAIN-ELYRIA  PTSUNNY   39  31  72 W13       29.93R
ASHTABULA      CLOUDY    39  31  72 W16       29.87R
AKRON-CANTON   MOSUNNY   41  32  70 W16       29.92R
WOOSTER        NOT AVBL
MANSFIELD      SUNNY     39  31  72 W12G22    29.94R
YOUNGSTOWN     MOSUNNY   41  31  67 W12       29.87R
$$

OHZ042-051>053-060>062-070>072-077>081-301400-
  SOUTHWEST OHIO

CITY           SKY/WX    TMP DP  RH WIND       PRES   REMARKS
CINC-COVINGTON SUNNY     45  35  68 SW3       30.07R
CINC-LUNKEN    SUNNY     44  37  76 SE3       30.09R
HAMILTON       SUNNY     44  36  73 W5        30.08R
DAYTON         NOT AVBL
WRIGHT-PAT AFB NOT AVBL
DAYTON GENERAL SUNNY     41  33  73 W7        30.05R
WILMINGTON     SUNNY     42  33  70 W8        30.05R
$$

OHZ036-037-039>041-045>050-054>059-063>069-073>076-082>088-301400-
  CENTRAL AND SOUTHEAST OHIO

CITY           SKY/WX    TMP DP  RH WIND       PRES   REMARKS
COLUMBUS       SUNNY     42  33  70 W9        30.02R
OSU AIRPORT    SUNNY     41  32  70 W10       30.02R
BOLTON FIELD   NOT AVBL
RICKENBACK AFB NOT AVBL
NEWARK         SUNNY     42  34  73 SW10      30.00R
MARION         MOSUNNY   39  30  70 W13       29.98R
LANCASTER      SUNNY     43  32  65 W9        30.03R
ZANESVILLE     SUNNY     42  32  67 W13       29.99R
NEW PHILLY     MOSUNNY   44  32  62 W10       29.96R
$$


USA.gov is the U.S. government's official web portal to all federal, state and local government web resources and services.